"Pseudo-MPEC" for C0Z1LA2

Created 2019 Sep 15 20:07:05 UT using Find_Orb

Click here for an explanation of pseudo-MPECs

 
 Astrometry: 
     C0Z1LA2  C2019 09 07.36103 23 53 26.32 -07 14 57.6    ~979b 20.6 GVNEOCPG96
     C0Z1LA2  C2019 09 07.36581 23 53 24.48 -07 14 22.6    ~979b 21.3 GVNEOCPG96
     C0Z1LA2  C2019 09 07.37059 23 53 22.59 -07 13 48.1    ~979b 20.7 GVNEOCPG96
     C0Z1LA2  C2019 09 07.37537 23 53 20.76 -07 13 12.9    ~979b 21.2 GVNEOCPG96
     C0Z1LA2  C2019 09 07.45485 23 52 50.56 -07 03 37.6    ~97Bb 21.8 GVNEOCPI52
     C0Z1LA2  C2019 09 07.45652 23 52 50.15 -07 03 30.2    ~97Bb 21.0 GVNEOCPI52
     C0Z1LA2  C2019 09 07.45819 23 52 49.39 -07 03 14.2    ~97Bb 22.1 GVNEOCPI52
     C0Z1LA2  C2019 09 07.45986 23 52 48.73 -07 03 02.2    ~97Bb 21.3 GVNEOCPI52

Station data:
(G96) Mt. Lemmon Survey  (N32.442754 W110.788720)  US/Arizona.  Observers T.
   A. Pruyne, B. M. Africano, E. J. Christensen, G. A. Farneth, D. C. Fuls,
   A. R. Gibbs, A. D. Grauer, H. Groeller, J. A. Johnson, R. A. Kowalski, S.
   M. Larson, G. J. Leonard, D. Rankin, R. L. Seaman, F. C. Shelly. 1.5-m
   reflector + 10K CCD.
(I52) Steward Observatory, Mt. Lemmon Station  (N32.442547 W110.788920)
   US/Arizona.  Observers T. A. Pruyne, B. M. Africano, E. J. Christensen, G.
   A. Farneth, D. C. Fuls, A. R. Gibbs, A. D. Grauer, H. Groeller, J. A.
   Johnson, R. A. Kowalski, S. M. Larson, G. J. Leonard, D. Rankin, R. L.
   Seaman, F. C. Shelly. 1.0-m reflector + CCD.

Orbital elements:  C0Z1LA2
   Perihelion 2019 Jul 18.294419 +/- 38.9 TT =  7:03:57 (JD 2458682.794419)
Epoch 2019 Sep  7.0 TT = JDT 2458733.5   Earth MOID: 0.0250   Ma: 0.0265
M  18.71682720 +/- 100              (J2000 ecliptic)          AutoNEOCP
n   0.36912755 +/-                  Peri.  286.74364 +/- 7
a   1.92464988 +/-                  Node   348.12474 +/- 2.1
e   0.5746377 +/- 1.7               Incl.    7.07392 +/- 12
P   2.67/975.25d           H 26.4   G  0.15   U 13.2  
q 0.81867333 +/- 0.429    Q 3.03062642 +/- 29.8
From 8 observations 2019 Sept. 7 (2.4 hr); mean residual 1".11
Residuals in arcseconds: 
190907 G96  .03+  .10-    190907 G96  .02-  .25+    190907 I52  .12-  .85+    
190907 G96  .26+  .09+    190907 I52  1.1-  1.4+    190907 I52  .77-  .87+    
190907 G96  .30-  .19-    190907 I52  2.0+  3.2-    

Ephemerides (geocentric):
Date (UTC) HH   RA              Dec         delta   r     elong  mag " sig PA
---- -- -- --  -------------   -----------  ------ ------ -----  --- ---- ---
2019 09 15 20  23 28 43.913   +01 23 57.13  .14331 1.1486 175.5 22.9 178d 176
2019 09 15 21  23 28 40.275   +01 25 11.12  .14368 1.1489 175.5 22.9 178d 176
2019 09 15 22  23 28 36.656   +01 26 24.72  .14405 1.1493 175.5 22.9 178d 176
2019 09 15 23  23 28 33.056   +01 27 37.93  .14442 1.1496 175.5 22.9 178d 176
2019 09 16 00  23 28 29.474   +01 28 50.74  .14479 1.1500 175.4 22.9 178d 176
2019 09 16 01  23 28 25.910   +01 30 03.16  .14516 1.1503 175.4 22.9 178d 176
2019 09 16 02  23 28 22.365   +01 31 15.20  .14553 1.1507 175.4 22.9 178d 176
2019 09 16 03  23 28 18.838   +01 32 26.85  .14590 1.1510 175.4 22.9 178d 176
2019 09 16 04  23 28 15.329   +01 33 38.12  .14627 1.1514 175.4 22.9 178d 175
2019 09 16 05  23 28 11.838   +01 34 49.01  .14664 1.1517 175.4 22.9 178d 175
2019 09 16 06  23 28 08.364   +01 35 59.53  .14701 1.1521 175.3 22.9 178d 175
2019 09 16 07  23 28 04.908   +01 37 09.67  .14738 1.1525 175.3 22.9 178d 175
2019 09 16 08  23 28 01.470   +01 38 19.44  .14775 1.1528 175.3 22.9 178d 175
2019 09 16 09  23 27 58.050   +01 39 28.85  .14812 1.1532 175.3 22.9 178d 175
2019 09 16 10  23 27 54.646   +01 40 37.89  .14849 1.1535 175.3 23.0 178d 175
2019 09 16 11  23 27 51.260   +01 41 46.56  .14886 1.1539 175.2 23.0 178d 175
2019 09 16 12  23 27 47.891   +01 42 54.88  .14923 1.1542 175.2 23.0 178d 175
2019 09 16 13  23 27 44.539   +01 44 02.84  .14960 1.1546 175.2 23.0 178d 175
2019 09 16 14  23 27 41.204   +01 45 10.44  .14998 1.1549 175.2 23.0 178d 175
2019 09 16 15  23 27 37.885   +01 46 17.69  .15035 1.1553 175.2 23.0 178d 175
2019 09 16 16  23 27 34.584   +01 47 24.59  .15072 1.1556 175.1 23.0 178d 175
2019 09 16 17  23 27 31.299   +01 48 31.14  .15109 1.1560 175.1 23.0 178d 174
2019 09 16 18  23 27 28.030   +01 49 37.34  .15146 1.1564 175.1 23.0 178d 174
2019 09 16 19  23 27 24.778   +01 50 43.20  .15184 1.1567 175.1 23.0 178d 174
2019 09 16 20  23 27 21.542   +01 51 48.72  .15221 1.1571 175.0 23.0 178d 174
2019 09 16 21  23 27 18.322   +01 52 53.90  .15258 1.1574 175.0 23.0 178d 174
2019 09 16 22  23 27 15.119   +01 53 58.75  .15295 1.1578 175.0 23.0 178d 174
2019 09 16 23  23 27 11.931   +01 55 03.26  .15333 1.1581 175.0 23.0 178d 174
2019 09 17 00  23 27 08.759   +01 56 07.44  .15370 1.1585 175.0 23.1 178d 174
2019 09 17 01  23 27 05.603   +01 57 11.28  .15407 1.1588 174.9 23.1 178d 174
2019 09 17 02  23 27 02.463   +01 58 14.81  .15444 1.1592 174.9 23.1 178d 174
2019 09 17 03  23 26 59.338   +01 59 18.00  .15482 1.1596 174.9 23.1 178d 174
2019 09 17 04  23 26 56.229   +02 00 20.87  .15519 1.1599 174.9 23.1 178d 174
2019 09 17 05  23 26 53.135   +02 01 23.43  .15556 1.1603 174.8 23.1 178d 174
2019 09 17 06  23 26 50.057   +02 02 25.66  .15594 1.1606 174.8 23.1 178d 174
2019 09 17 07  23 26 46.993   +02 03 27.58  .15631 1.1610 174.8 23.1 178d 173
2019 09 17 08  23 26 43.945   +02 04 29.18  .15669 1.1613 174.7 23.1 178d 173
2019 09 17 09  23 26 40.912   +02 05 30.47  .15706 1.1617 174.7 23.1 178d 173
2019 09 17 10  23 26 37.894   +02 06 31.44  .15743 1.1621 174.7 23.1 178d 173
2019 09 17 11  23 26 34.891   +02 07 32.11  .15781 1.1624 174.7 23.1 178d 173
2019 09 17 12  23 26 31.903   +02 08 32.48  .15818 1.1628 174.6 23.1 178d 173
2019 09 17 13  23 26 28.929   +02 09 32.54  .15856 1.1631 174.6 23.1 178d 173
2019 09 17 14  23 26 25.970   +02 10 32.29  .15893 1.1635 174.6 23.1 178d 173
2019 09 17 15  23 26 23.025   +02 11 31.75  .15931 1.1638 174.6 23.2 178d 173
2019 09 17 16  23 26 20.095   +02 12 30.91  .15968 1.1642 174.5 23.2 178d 173
2019 09 17 17  23 26 17.180   +02 13 29.77  .16006 1.1645 174.5 23.2 178d 173
2019 09 17 18  23 26 14.278   +02 14 28.34  .16043 1.1649 174.5 23.2 178d 173
2019 09 17 19  23 26 11.391   +02 15 26.61  .16081 1.1653 174.4 23.2 178d 173